OSCAR 25 [?]

Last updated on Tue Jun 27 2023 00:03:36 GMT+0000 (Coordinated Universal Time)

1 19419U 88074A 23176.79052819 .00000107 00000+0 17074-3 0 9990 2 19419 90.0094 18.1981 0094491 296.9484 73.3693 13.42366837705797

Satellite not in orbit

OSCAR 25 [?]